CAPE
0 0 0 0 0 0 0 0 0 0 0 0 0 0 0 0 0 0 0 0 0 0 0 0 0 0 0 0 0 0 0 2 5 1 0 0 0 0 0 0 0 0 0 0 6
0 0 0 0 0 0 0 0 0 0 0 0 0 0 0 0 0 0 0 0 0 0 0 0 0 0 0 0 0 0 0 0 0 1 1 0 1 1 0 0 0 0 0 0 171
0 0 0 0 0 0 0 0 0 0 0 0 0 0 0 0 0 0 0 0 0 0 0 0 0 0 0 0 0 0 0 0 3 0 0 0 0 0 1 0 0 0 0 0 1
0 0 0 0 0 0 0 0 0 0 0 0 0 0 0 0 0 0 0 0 0 0 0 0 0 0 0 0 0 0 0 0 0 0 0 0 0 0 1 0 0 0 0 0 0
0 0 0 0 0 0 0 0 0 0 0 0 0 0 0 0 0 0 0 0 0 0 0 0 0 0 0 0 0 0 0 0 0 0 0 0 0 0 0 0 0 0 0 0 0
0 0 0 0 0 0 0 0 0 0 0 0 0 0 0 0 0 0 0 0 0 0 0 0 0 0 0 0 0 0 0 0 0 0 0 0 0 0 0 0 0 0 0 0 0
0 0 0 0 0 0 0 0 0 0 0 0 0 0 0 0 0 0 0 0 0 0 0 0 0 0 0 0 0 0 0 0 0 0 0 0 0 0 0 0 0 0 0 0 0
0 0 0 0 0 0 0 0 0 0 0 0 0 0 0 0 0 0 0 0 0 0 0 0 0 0 0 0 0 0 0 0 0 0 0 1 0 0 0 0 0 0 0 0 0
0 0 0 0 0 0 0 0 0 0 0 0 0 0 0 0 0 0 0 0 0 0 0 0 0 0 0 0 0 0 0 0 0 0 0 9 0 0 0 4 4 0 0 0 0
0 0 0 0 0 0 0 0 0 0 0 0 0 0 0 0 0 0 0 0 0 0 0 0 0 0 0 0 0 0 0 0 0 0 0 0 0 0 0 33 7 1 0 0 0
0 0 0 0 0 0 0 0 0 0 0 0 0 0 0 0 0 0 0 0 0 0 0 0 0 0 0 0 0 1 0 0 0 0 0 7 2 0 3 0 1 0 2 0 0
0 0 0 0 0 0 0 0 0 0 0 0 0 0 0 0 0 0 0 0 0 0 0 0 0 0 0 0 0 0 0 0 0 0 0 0 0 0 0 2 3 5 2 0 0
0 0 0 0 0 0 0 0 0 0 0 0 0 0 0 0 0 0 0 0 0 0 0 0 0 0 0 0 0 0 0 0 0 0 0 0 0 0 1 0 0 0 4 5 3
0 0 0 0 0 0 0 0 0 0 0 0 0 0 0 0 0 0 0 0 0 0 0 0 0 0 0 0 0 0 0 0 0 0 0 0 2 0 0 0 0 0 0 4 6
0 0 0 0 0 0 0 0 0 0 0 0 0 0 0 0 0 0 0 0 0 0 0 0 0 0 0 0 0 0 0 0 0 0 0 0 0 0 0 0 0 0 0 0 4
0 0 0 0 0 0 0 0 0 0 0 0 0 0 0 0 0 0 0 0 0 0 0 0 0 0 0 0 0 0 0 0 0 0 0 0 0 0 0 0 0 0 0 0 1
0 0 0 0 0 0 0 0 0 0 0 0 0 0 0 0 0 0 0 0 0 0 0 0 0 0 0 0 0 0 0 0 0 0 0 0 0 0 0 0 0 0 0 0 0
0 0 0 0 0 0 0 0 0 0 0 0 0 0 0 0 0 0 0 0 0 0 0 0 0 0 0 0 0 0 0 0 0 0 0 0 0 0 0 0 0 0 0 0 0
0 0 0 0 0 0 0 0 0 0 0 0 0 0 0 0 0 0 0 0 0 0 0 0 0 0 0 0 0 0 0 0 0 0 0 0 0 0 0 0 0 0 0 0 0
0 0 0 0 0 0 0 0 0 0 0 0 0 0 0 0 0 0 0 0 0 0 0 0 0 0 0 0 0 0 0 0 0 0 0 0 0 0 0 0 0 0 0 0 0
0 0 0 0 0 0 0 0 0 0 0 0 0 0 0 0 0 0 0 0 0 0 0 0 0 0 0 0 0 0 0 0 0 0 0 0 0 0 0 0 0 0 0 0 0
0 0 0 0 0 0 0 0 0 0 0 0 0 0 0 0 0 0 0 0 0 0 0 0 0 0 0 0 0 0 0 0 0 0 0 0 0 0 0 0 0 0 0 0 0
0 0 0 0 0 0 0 0 0 0 0 0 0 0 0 0 0 0 0 0 0 0 0 0 0 0 0 0 0 0 0 0 0 0 0 0 0 0 0 0 0 0 0 0 0
0 0 0 0 0 0 0 0 0 0 0 0 0 0 0 0 0 0 0 0 0 0 0 0 0 0 0 0 0 0 0 0 0 0 0 0 0 0 0 0 0 0 0 0 0
0 0 0 0 0 0 0 0 0 0 0 0 0 0 0 0 0 0 0 0 0 0 0 0 0 0 0 0 0 0 0 0 0 0 0 0 0 0 0 0 0 0 0 0 0
0 0 0 0 0 0 0 0 0 0 0 0 0 0 0 0 0 0 0 0 0 0 0 0 0 0 0 0 0 0 0 0 0 0 0 0 0 0 0 0 0 0 0 0 0
0 0 0 0 0 0 0 0 0 0 0 0 0 0 0 0 0 0 0 0 0 0 0 0 0 0 0 0 0 0 0 0 0 0 0 0 0 0 0 0 0 0 0 0 0
CIN
-0 -0 -0 -0 -0 -0 -0 -0 -0 -0 -0 -0 -0 -0 -0 -0 -0 -0 -0 -0 -0 -0 -0 -0 -0 -0 -0 -0 -0 -0 -1 -0 -0 -2 -0 -0 -0 -0 -0 -0 -0 -0 -0 -0 -74
-0 -0 -0 -0 -0 -0 -0 -0 -0 -0 -0 -0 -0 -0 -0 -0 -0 -0 -0 -0 -0 -0 -0 -0 -0 -0 -0 -0 -0 -0 -0 -0 -0 -0 -0 -0 -0 -0 -0 -0 -0 -0 -0 -0 -119
-0 -0 -0 -0 -0 -0 -0 -0 -0 -0 -0 -0 -0 -0 -0 -0 -0 -0 -0 -0 -0 -0 -0 -0 -0 -0 -0 -0 -0 -0 -0 -0 -3 -0 -0 -0 -0 -0 -0 -0 -0 -0 -0 -0 -21
-0 -0 -0 -0 -0 -0 -0 -0 -0 -0 -0 -0 -0 -0 -0 -0 -0 -0 -0 -0 -0 -0 -0 -0 -0 -0 -0 -0 -0 -0 -0 -0 -0 -0 -0 -0 -0 -0 -0 -0 -0 -0 -0 -0 -0
-0 -0 -0 -0 -0 -0 -0 -0 -0 -0 -0 -0 -0 -0 -0 -0 -0 -0 -0 -0 -0 -0 -0 -0 -0 -0 -0 -0 -0 -0 -0 -0 -0 -0 -0 -0 -0 -0 -0 -0 -0 -0 -0 -0 -0
-0 -0 -0 -0 -0 -0 -0 -0 -0 -0 -0 -0 -0 -0 -0 -0 -0 -0 -0 -0 -0 -0 -0 -0 -0 -0 -0 -0 -0 -0 -0 -0 -0 -0 -0 -0 -0 -0 -0 -0 -0 -0 -0 -0 -0
-0 -0 -0 -0 -0 -0 -0 -0 -0 -0 -0 -0 -0 -0 -0 -0 -0 -0 -0 -0 -0 -0 -0 -0 -0 -0 -0 -0 -0 -0 -0 -0 -0 -0 -0 -0 -0 -0 -0 -0 -0 -0 -0 -0 -0
-0 -0 -0 -0 -0 -0 -0 -0 -0 -0 -0 -0 -0 -0 -0 -0 -0 -0 -0 -0 -0 -0 -0 -0 -0 -0 -0 -0 -0 -0 -0 -0 -0 -0 -0 -1 -0 -0 -0 -0 -0 -0 -0 -0 -0
-0 -0 -0 -0 -0 -0 -0 -0 -0 -0 -0 -0 -0 -0 -0 -0 -0 -0 -0 -0 -0 -0 -0 -0 -0 -0 -0 -0 -0 -0 -0 -0 -0 -0 -0 -10 -0 -0 -0 -6 -1 -0 -0 -0 -0
-0 -0 -0 -0 -0 -0 -0 -0 -0 -0 -0 -0 -0 -0 -0 -0 -0 -0 -0 -0 -0 -0 -0 -0 -0 -0 -0 -0 -0 -0 -0 -0 -0 -7 -0 -0 -0 -0 -0 -8 -20 -0 -0 -0 -0
-0 -0 -0 -0 -0 -0 -0 -0 -0 -0 -0 -0 -0 -0 -0 -0 -0 -0 -0 -0 -0 -0 -0 -0 -0 -0 -0 -0 -0 -0 -0 -0 -0 -0 -0 -7 -33 -0 -0 -0 -0 -0 -0 -0 -0
-0 -0 -0 -0 -0 -0 -0 -0 -0 -0 -0 -0 -0 -0 -0 -0 -0 -0 -0 -0 -0 -0 -0 -0 -0 -0 -0 -0 -0 -0 -0 -0 -0 -0 -0 -0 -0 -0 -0 -0 -0 -0 -0 -0 -0
-0 -0 -0 -0 -0 -0 -0 -0 -0 -0 -0 -0 -0 -0 -0 -0 -0 -0 -0 -0 -0 -0 -0 -0 -0 -0 -0 -0 -0 -0 -0 -0 -0 -0 -0 -0 -1 -0 -0 -0 -0 -0 -0 -0 -0
-0 -0 -0 -0 -0 -0 -0 -0 -0 -0 -0 -0 -0 -0 -0 -0 -0 -0 -0 -0 -0 -0 -0 -0 -0 -0 -0 -0 -0 -0 -0 -0 -0 -0 -0 -0 -2 -0 -0 -0 -0 -0 -0 -0 -0
-0 -0 -0 -0 -0 -0 -0 -0 -0 -0 -0 -0 -0 -0 -0 -0 -0 -0 -0 -0 -0 -0 -0 -0 -0 -0 -0 -0 -0 -0 -0 -0 -0 -0 -0 -0 -0 -0 -0 -0 -0 -0 -0 -0 -0
-0 -0 -0 -0 -0 -0 -0 -0 -0 -0 -0 -0 -0 -0 -0 -0 -0 -0 -0 -0 -0 -0 -0 -0 -0 -0 -0 -0 -0 -0 -0 -0 -0 -0 -0 -0 -0 -0 -0 -0 -0 -0 -0 -0 -0
-0 -0 -0 -0 -0 -0 -0 -0 -0 -0 -0 -0 -0 -0 -0 -0 -0 -0 -0 -0 -0 -0 -0 -0 -0 -0 -0 -0 -0 -0 -0 -0 -0 -0 -0 -0 -0 -0 -0 -0 -0 -0 -0 -0 -0
-0 -0 -0 -0 -0 -0 -0 -0 -0 -0 -0 -0 -0 -0 -0 -0 -0 -0 -0 -0 -0 -0 -0 -0 -0 -0 -0 -0 -0 -0 -0 -0 -0 -0 -0 -0 -0 -0 -0 -0 -0 -0 -0 -0 -0
-0 -0 -0 -0 -0 -0 -0 -0 -0 -0 -0 -0 -0 -0 -0 -0 -0 -0 -0 -0 -0 -0 -0 -0 -0 -0 -0 -0 -0 -0 -0 -0 -0 -0 -0 -0 -0 -0 -0 -0 -0 -0 -0 -0 -0
-0 -0 -0 -0 -0 -0 -0 -0 -0 -0 -0 -0 -0 -0 -0 -0 -0 -0 -0 -0 -0 -0 -0 -0 -0 -0 -0 -0 -0 -0 -0 -0 -0 -0 -0 -0 -0 -0 -0 -0 -0 -0 -0 -0 -0
-0 -0 -0 -0 -0 -0 -0 -0 -0 -0 -0 -0 -0 -0 -0 -0 -0 -0 -0 -0 -0 -0 -0 -0 -0 -0 -0 -0 -0 -0 -0 -0 -0 -0 -0 -0 -0 -0 -0 -0 -0 -0 -0 -0 -0
-0 -0 -0 -0 -0 -0 -0 -0 -0 -0 -0 -0 -0 -0 -0 -0 -0 -0 -0 -0 -0 -0 -0 -0 -0 -0 -0 -0 -0 -0 -0 -0 -0 -0 -0 -0 -0 -0 -0 -0 -0 -0 -0 -0 -0
-0 -0 -0 -0 -0 -0 -0 -0 -0 -0 -0 -0 -0 -0 -0 -0 -0 -0 -0 -0 -0 -0 -0 -0 -0 -0 -0 -0 -0 -0 -0 -0 -0 -0 -0 -0 -0 -0 -0 -0 -0 -0 -0 -0 -0
-0 -0 -0 -0 -0 -0 -0 -0 -0 -0 -0 -0 -0 -0 -0 -0 -0 -0 -0 -0 -0 -0 -0 -0 -0 -0 -0 -0 -0 -0 -0 -0 -0 -0 -0 -0 -0 -0 -0 -0 -0 -0 -0 -0 -0
-0 -0 -0 -0 -0 -0 -0 -0 -0 -0 -0 -0 -0 -0 -0 -0 -0 -0 -0 -0 -0 -0 -0 -0 -0 -0 -0 -0 -0 -0 -0 -0 -0 -0 -0 -0 -0 -0 -0 -0 -0 -0 -0 -0 -0
-0 -0 -0 -0 -0 -0 -0 -0 -0 -0 -0 -0 -0 -0 -0 -0 -0 -0 -0 -0 -0 -0 -0 -0 -0 -0 -0 -0 -0 -0 -0 -0 -0 -0 -0 -0 -0 -0 -0 -0 -0 -0 -0 -0 -0
-0 -0 -0 -0 -0 -0 -0 -0 -0 -0 -0 -0 -0 -0 -0 -0 -0 -0 -0 -0 -0 -0 -0 -0 -0 -0 -0 -0 -0 -0 -0 -0 -0 -0 -0 -0 -0 -0 -0 -0 -0 -0 -0 -0 -0
Wind_Speed
27 26 25 25 26 27 30 31 33 36 36 37 35 32 25 24 34 44 38 32 33 34 33 36 35 35 28 27 27 26 41 52 51 52 48 37 39 34 39 40 34 31 30 28 23
26 25 24 24 25 26 28 32 33 34 36 37 37 38 25 21 28 43 31 30 31 31 32 36 40 37 32 29 26 28 37 44 37 36 41 43 39 40 37 41 43 39 31 27 24
25 25 23 23 24 25 25 29 33 32 34 34 37 39 34 24 27 34 32 33 29 29 29 29 31 33 31 27 27 29 38 36 37 37 37 43 47 39 40 41 32 39 39 35 32
26 24 22 21 21 23 25 26 29 32 30 31 31 33 36 33 36 30 29 30 27 27 28 30 31 33 32 30 27 34 33 35 37 37 40 44 43 49 42 41 41 39 39 38 37
27 24 22 20 18 18 19 22 22 27 27 27 27 30 30 39 37 31 28 27 26 25 25 25 29 31 32 29 30 33 34 35 40 43 44 44 44 49 52 45 41 36 36 36 37
28 25 21 19 17 15 14 17 18 20 23 22 24 26 34 45 31 32 31 30 27 24 25 24 26 26 27 29 29 29 36 40 40 43 43 48 50 44 51 45 47 41 38 36 35
28 26 21 19 17 15 13 14 15 16 21 21 19 23 33 38 31 33 31 30 28 27 28 25 23 25 26 29 25 30 35 37 38 39 40 41 55 50 47 46 46 45 39 36 32
28 24 22 20 17 14 12 13 16 17 21 26 23 26 31 28 31 36 32 31 31 28 27 26 25 25 26 24 25 29 27 33 31 32 34 36 54 42 39 43 45 45 39 33 30
22 25 21 18 16 13 13 14 18 19 19 26 25 24 33 27 37 35 30 30 27 28 29 29 28 28 26 27 28 25 29 32 29 24 30 33 43 38 37 39 42 37 31 28 29
20 26 20 19 18 17 17 15 20 21 21 20 29 25 30 31 31 34 28 30 31 29 27 29 33 32 29 28 30 27 27 26 29 27 29 31 38 33 30 31 29 31 29 27 27
25 24 21 21 23 19 18 16 13 16 26 30 28 28 25 23 26 40 31 27 29 34 37 32 40 43 31 19 14 8 10 27 28 25 24 25 28 26 24 24 27 28 30 28 26
25 22 21 19 24 20 18 16 14 15 19 22 24 26 24 24 30 39 37 32 35 39 35 40 44 35 29 23 20 16 12 18 21 20 21 20 18 13 20 24 25 27 28 28 26
24 24 21 16 20 22 20 18 16 15 17 21 24 26 26 25 30 36 41 30 34 37 37 42 36 30 31 29 28 23 20 16 4 22 19 18 20 18 17 17 20 23 27 23 23
23 25 24 19 19 19 19 16 16 16 18 23 25 27 26 24 29 30 35 30 30 34 32 33 31 33 31 32 28 27 19 11 8 9 17 16 23 20 20 21 20 24 24 28 24
23 24 25 21 20 21 18 17 17 17 22 20 23 21 26 31 24 31 31 30 34 31 31 34 33 33 33 28 24 23 13 12 12 15 9 17 17 19 17 22 22 24 25 27 26
22 23 21 23 23 21 19 18 18 20 22 23 21 26 29 29 28 25 30 32 26 27 29 27 26 28 29 20 21 16 18 18 18 19 27 17 14 16 18 22 22 20 22 25 26
22 24 24 22 24 19 19 18 19 25 19 21 22 25 25 27 27 31 32 40 42 37 35 28 29 26 28 29 22 26 25 28 30 29 25 17 14 15 17 19 21 25 24 24 25
18 23 26 26 21 20 19 20 24 18 20 21 22 22 26 30 27 28 31 36 35 34 30 36 35 31 27 31 27 28 28 32 34 31 26 19 22 19 15 18 19 21 22 24 24
16 19 26 27 21 20 22 27 21 18 19 20 20 25 24 26 27 29 31 31 30 32 34 32 30 23 23 25 29 28 31 21 24 22 25 22 17 12 10 18 19 20 21 22 23
18 19 25 23 20 23 25 24 20 19 20 22 25 24 23 25 28 29 30 24 29 27 25 26 29 24 24 23 27 30 25 29 26 31 28 23 21 19 11 15 20 21 22 23 24
19 20 22 21 21 26 27 23 19 20 20 22 22 21 21 24 25 24 26 22 24 25 24 25 26 27 23 29 30 30 31 28 25 25 27 25 22 15 12 11 20 22 24 25 27
19 19 21 19 26 25 26 20 20 19 19 20 20 20 20 22 22 23 24 21 21 22 25 24 24 29 25 22 22 26 28 29 29 27 24 22 19 13 10 8 14 24 24 25 25
20 18 18 19 12 26 17 18 18 19 18 19 19 19 19 21 23 20 20 17 19 21 23 24 26 32 28 25 22 25 24 25 26 24 24 25 20 13 9 7 4 10 26 26 27
20 18 16 24 21 20 21 20 21 18 18 18 18 19 19 20 17 19 20 18 18 19 19 19 22 25 28 22 20 21 21 20 23 24 24 20 17 14 11 7 5 6 3 27 28
23 20 17 5 6 22 20 20 22 21 17 16 17 16 18 20 20 20 19 17 18 18 18 20 23 22 18 16 16 15 15 17 19 18 21 20 17 14 11 10 11 11 10 8 28
22 17 19 17 16 18 23 20 21 21 16 16 16 17 15 17 18 19 19 19 19 20 21 20 24 24 25 22 21 19 13 13 16 16 14 14 16 14 12 11 13 16 16 14 15
22 21 19 18 17 19 19 20 17 20 16 14 14 17 15 11 12 13 13 12 13 17 21 22 24 29 29 27 23 26 22 19 19 17 17 20 16 14 14 11 12 17 19 18 17
Wind_Direction
43 41 40 41 36 36 34 33 29 28 31 28 34 35 42 44 29 18 18 17 13 10 7 358 353 344 337 319 305 291 269 263 263 262 261 271 263 263 258 252 252 254 255 263 263
34 35 40 40 38 40 38 38 35 33 33 33 30 26 38 46 31 18 25 19 15 15 13 4 350 344 333 321 308 287 273 268 268 269 265 263 265 263 258 250 248 249 257 270 258
25 32 38 42 41 40 46 42 39 39 39 39 36 31 41 42 31 21 21 17 19 24 22 19 9 355 340 332 310 291 275 275 268 270 268 265 258 263 255 247 248 249 255 259 256
21 26 37 39 49 50 47 47 44 41 43 43 41 39 40 39 23 20 16 20 25 26 25 19 14 0 349 328 318 293 283 276 273 271 266 264 261 253 251 247 253 256 258 256 254
12 24 39 39 51 59 59 53 55 49 47 47 46 43 42 32 28 21 23 25 28 28 25 21 15 7 351 339 320 295 290 281 273 271 266 262 258 253 251 252 254 257 256 256 255
4 18 41 48 52 63 71 62 62 55 49 50 49 49 39 26 30 26 28 28 29 33 28 24 19 16 2 345 324 313 295 283 275 268 265 258 255 254 248 252 249 252 252 255 258
3 17 40 49 61 66 79 73 65 60 50 50 53 49 36 32 32 29 33 34 37 38 30 31 28 18 8 349 339 317 301 292 278 266 260 259 250 249 250 249 247 245 248 253 259
3 340 39 50 61 69 81 82 65 63 57 48 55 47 39 38 33 30 34 36 39 39 37 33 31 25 15 4 348 320 312 298 292 270 264 253 247 249 247 246 241 241 244 251 256
324 343 45 58 61 67 81 86 64 62 60 49 46 45 37 38 31 33 36 34 37 37 38 38 33 28 21 10 352 334 306 302 297 285 269 253 249 247 249 242 239 239 239 246 253
314 14 50 55 52 58 64 78 61 59 55 50 42 41 33 32 34 31 33 38 36 36 38 35 31 28 29 27 6 337 317 313 298 289 278 262 249 251 248 234 233 234 237 241 252
337 27 41 48 37 54 62 62 52 50 45 43 42 41 34 34 41 31 34 40 39 38 33 34 28 28 30 40 38 54 39 311 295 293 280 265 263 246 244 239 237 236 237 240 253
6 33 41 52 37 49 54 55 60 64 48 49 44 39 38 39 34 30 33 38 37 34 36 34 33 36 40 51 50 68 84 351 300 309 290 275 254 268 247 248 243 238 238 246 261
19 23 37 56 44 39 44 53 70 73 57 45 42 37 36 40 37 30 31 39 37 35 37 37 37 41 48 51 56 74 79 82 18 299 295 278 253 265 259 264 252 246 244 252 262
29 21 27 50 43 45 44 63 71 74 58 39 38 39 37 43 39 37 35 42 41 37 40 42 42 43 49 54 59 67 81 80 94 264 308 300 258 258 266 258 258 255 250 250 265
36 29 23 40 42 40 49 68 72 72 43 38 40 45 40 42 38 35 39 43 40 41 43 42 41 43 48 52 61 66 58 77 89 88 72 307 278 264 275 256 267 264 255 255 263
43 40 43 29 34 41 59 73 66 52 44 42 42 34 36 39 41 38 40 44 49 47 46 47 49 52 47 50 64 48 70 75 80 78 48 326 307 281 272 270 265 273 269 265 263
49 45 36 37 28 53 64 65 52 44 50 40 38 34 38 35 40 37 38 38 39 40 40 43 49 52 49 51 61 53 61 63 65 65 69 88 349 302 291 285 272 268 273 274 263
57 47 37 25 42 54 54 45 42 55 48 43 39 37 40 36 40 37 39 39 42 42 44 41 43 46 47 52 50 54 61 62 60 62 67 81 62 359 326 288 289 275 275 275 273
63 47 30 22 49 47 34 29 53 55 50 41 42 41 42 39 38 37 39 41 43 41 42 40 45 49 52 55 53 52 54 68 63 69 67 71 85 113 177 285 291 285 278 279 276
52 52 38 34 50 31 19 42 54 53 47 43 41 43 41 35 36 37 38 47 42 44 50 46 42 49 50 58 57 56 59 57 60 55 59 63 73 79 103 282 293 291 286 279 286
52 47 43 44 46 8 23 46 55 50 48 44 43 43 43 37 38 41 40 47 44 42 50 47 48 41 51 49 47 50 52 56 62 61 56 54 67 84 85 96 297 291 286 285 287
53 50 46 57 22 14 31 59 51 55 54 49 47 45 43 39 40 42 40 43 44 42 40 45 48 34 44 53 58 55 51 52 52 49 56 58 63 77 81 93 257 295 292 287 286
52 56 54 56 66 29 68 59 57 52 52 51 46 45 43 40 38 43 42 49 45 42 43 44 40 33 41 48 50 46 49 51 53 54 53 48 51 62 71 67 90 244 299 295 293
56 57 67 45 58 54 51 50 45 47 48 49 46 46 45 40 49 40 38 49 43 48 50 49 42 38 31 24 29 33 40 46 46 45 42 46 37 39 43 33 49 57 158 302 297
53 62 65 128 45 43 45 43 39 38 47 50 49 46 44 41 35 40 38 37 48 51 50 44 35 34 23 15 28 26 29 36 38 40 39 35 29 19 28 40 42 33 32 33 309
55 64 57 60 60 47 33 37 34 36 45 44 41 40 43 36 34 26 30 35 42 45 38 41 34 28 25 37 36 24 28 34 36 35 25 21 17 42 42 39 33 25 22 13 4
52 57 63 58 52 43 38 34 35 34 45 42 35 30 30 29 29 27 29 36 35 30 32 34 31 25 27 26 23 34 42 43 39 37 32 21 24 26 20 20 19 12 9 11 8